Location: *
(37.5724°S, 58.0067°E)
Time: 10:52:58
(UTC+00:00)

Aureole 3 Rocket - Pass Details

Date: 26 September 2020
Orbit: 399 x 1740 km, 82.5° (Epoch: 29 October)

Event Time Altitude Azimuth Distance (km) Brightness Sun altitude
Rises 16:44:03 0° 187° (S) 4,890 8.1 -30.3°
Reaches altitude 10° 16:47:25 10° 184° (S) 3,774 7.4 -30.9°
Enters shadow 16:56:11 73° 124° (SE) 1,345 4.5 -32.4°
